Welcome to the New NWS' Forecast!
Most changes are behind the scenes, but click here for differences you might notice.
Latest weather observations around

Mount Ida (KMWT)

Using English Units (Switch to International System of Units)
Date/ Time (CST) Wind (mph) Vis. (mi) Weather Sky Cond. Temp (°F) Rel. Humidity Wind Chill (°F) Heat Index (°F) Pressure Precip. (in)
Air Dwpt 6 hour Altimeter (inHg) Sea level (inHg) 1 hr 3 hr 6 hr
Max Min
Jan 21 09:53 6 10 Cloudy OVC013 64 61     90%     29.97 29.96 0    
Jan 21 08:53 S 8 9 Light Rain OVC014 63 61     93%     29.96 29.95 0 0  
Jan 21 08:43 S 8 10 Cloudy OVC014 63 61     93%     29.96        
Jan 21 07:53 3 10 Cloudy OVC015 63 61     93%     29.95 29.94 0    
Jan 21 06:53 7 10 Cloudy OVC015 63 60     90%     29.95 29.94 0    
Jan 21 05:53 6 10 Cloudy OVC014 63 60     90%     29.95 29.94 0   0
Jan 21 04:53 5 10 Light Rain OVC015 63 60     90%     29.96 29.95 0    
Jan 21 04:23 5 10 Cloudy OVC015 63 60     90%     29.95        
Jan 21 04:13 7 10 Cloudy BKN014 OVC023 64 60     87%     29.95        
Jan 21 03:53 SW 9 10 Cloudy BKN016 OVC023 64 60     87%     29.95 29.94      
Jan 21 02:53 7 10 Cloudy BKN018 OVC025 63 59     87%     29.95 29.95      
Jan 21 01:53 SSW 7 10 Cloudy BKN018 BKN024 OVC050 63 59     87%     29.95 29.94      
Jan 21 00:53   10 Cloudy OVC015 62 59     90%     29.96 29.96      
Jan 20 23:53 3 10 Cloudy BKN010 OVC014 61 59     93%     29.97 29.96      
Jan 20 22:53 6 10 Cloudy OVC011 62 58     86%     29.98 29.97      
Jan 20 21:37 SSW 8 10 Cloudy OVC014 61 58     90%     29.98        
Jan 20 20:53 5 10 Cloudy OVC016 62 58     86%     29.99 29.98      
Jan 20 19:53 3 10 Cloudy FEW018 BKN024 OVC043 61 57     87%     29.99 29.99      
Jan 20 18:53 5 10 Cloudy BKN017 BKN023 OVC043 59 57     93%     29.99 29.98      
Jan 20 18:11 7 10 Cloudy BKN015 OVC020 59 57     93%     29.98        
Jan 20 17:53 Calm 10 Cloudy OVC013 57 56     96%     29.98 29.99      
Jan 20 17:01 5 4 Fog/Mist OVC010 57 56     96%     29.98        
Jan 20 16:53 3 2.5 Fog/Mist OVC010 57 56     96%     29.98 29.98      
Jan 20 16:13 Calm 2.5 Fog/Mist OVC009 56 55     97%     29.98        
Jan 20 15:53 ESE 3 4 Fog/Mist OVC009 56 54     93%     29.98 29.98      
Jan 20 14:53 SSE 6 9 Cloudy OVC011 56 53     90%     29.98 29.98      
Jan 20 13:53 3 9 Cloudy OVC011 56 53     90%     29.98 29.99      
Jan 20 12:53 5 6 Fog/Mist OVC008 55 52     89%     30.01 30.01      
Jan 20 12:33 7 9 Cloudy OVC009 55 52     89%     30.03        
Jan 20 11:53   6 Fog/Mist OVC010 55 52     89%     30.04 30.05      
Jan 20 10:53 6 6 Fog/Mist OVC010 52 50     93%     30.07 30.08      
Jan 20 09:53 3 10 Cloudy OVC010 51 48     89%     30.07 30.08      
Jan 20 08:53 SSE 5 4 Fog/Mist OVC008 49 46     90% 47   30.06 30.07      
Jan 20 07:53 6 9 Cloudy OVC009 49 46     90% 46   30.05 30.06      
Jan 20 07:43 SE 3 10 Cloudy OVC009 49 46     90% 48   30.05        
Jan 20 06:53 SSE 3 10 Cloudy OVC012 48 43     83% 47   30.04 30.06      
Jan 20 06:24 Calm 10 Cloudy OVC014 48 42     80%     30.04        
Jan 20 05:53 3 10 Cloudy OVC015 49 42     77% 48   30.05 30.06      
Jan 20 04:53 5 10 Cloudy OVC017 49 40     71% 47   30.04 30.05      
Jan 20 03:53 Calm 10 Cloudy OVC017 49 39     69%     30.06 30.06      
Jan 20 02:53 3 10 Cloudy OVC020 49 36     61% 48   30.07 30.07      
Jan 20 01:53 6 10 Cloudy OVC019 49 33     54% 46   30.06 30.07      
Jan 20 01:40 3 10 Mostly Cloudy BKN019 BKN060 49 33     54% 48   30.06        
Jan 20 01:20 5 10 Mostly Cloudy SCT019 BKN060 49 33     54% 47   30.07        
Jan 20 01:12 S 8 10 Mostly Cloudy BKN019 BKN055 49 32     52% 45   30.07        
Jan 20 00:53 3 10 Partly Cloudy SCT055 48 30     50% 47   30.07 30.08      
Jan 19 23:53 6 10 Mostly Cloudy BKN048 49 27     42% 46   30.07 30.08      
Jan 19 22:53 S 6 10 Mostly Cloudy BKN046 48 25     40% 45   30.08 30.09      
Jan 19 22:23 SSE 6 10 Mostly Cloudy SCT029 BKN045 47 24     40% 44   30.08        
Jan 19 21:53 3 10 Cloudy BKN027 OVC045 48 23     37% 47   30.09 30.1      
Jan 19 21:41 5 10 Cloudy BKN027 OVC043 48 23     37% 46   30.08        
Jan 19 20:53 5 10 Cloudy FEW025 OVC037 48 24     39% 46   30.08 30.1      
Jan 19 19:53 Calm 10 Cloudy SCT022 OVC038 47 28     48%     30.08 30.1      
Jan 19 19:25 Calm 10 Cloudy BKN022 OVC033 47 25     42%     30.07        
Jan 19 18:53 5 10 Cloudy OVC031 47 24     40% 45   30.08 30.11      
Jan 19 17:53 3 10 Cloudy OVC032 46 26     45% 45   30.07 30.1      
Jan 19 16:53 SSE 5 10 Mostly Cloudy BKN032 48 26     42% 46   30.07 30.11      
Jan 19 15:53 3 10 Mostly Cloudy BKN032 49 27     42% 48   30.08 30.11      
Jan 19 15:06 5 10 Partly Cloudy SCT029 50 30     46% 48   30.08        
Jan 19 14:53 WSW 6 10 Mostly Cloudy BKN028 50 31     48% 48   30.08 30.11      
Jan 19 14:30 5 10 Mostly Cloudy BKN026 50 33     52% 48   30.08        
Jan 19 14:16 SW 8 10 Partly Cloudy SCT027 49 33     54% 45   30.09        
Jan 19 14:09 SW 8 10 Mostly Cloudy BKN025 BKN030 49 33     54% 45   30.09        
Jan 19 14:01 7 10 Partly Cloudy SCT025 48 33     56% 45   30.09        
Jan 19 13:53 6 10 Mostly Cloudy BKN025 49 32     52% 46   30.1 30.13      
Jan 19 12:53 6 10 Cloudy OVC027 48 30     50% 45   30.13 30.16      
Jan 19 11:53 6 10 Cloudy OVC027 48 29     47% 45   30.16 30.19      
Jan 19 11:14 Calm 10 Cloudy BKN024 OVC031 46 25     43%     30.18        
Jan 19 10:53 3 10 Cloudy FEW025 OVC032 45 23     42% 44   30.19 30.22      
Jan 19 10:48 Calm 10 Cloudy FEW024 OVC032 45 23     42%     30.19        
Jan 19 09:53 7 10 Cloudy OVC021 42 23     46% 38   30.2 30.23      
Notice The following observation data may not be complete
Jan 19 09:13   10 Cloudy SCT020 BKN027 OVC035          %              
Jan 19 08:53 Calm 10 Cloudy OVC036 34 22     61%     30.19 30.22      
Jan 19 07:53 Calm 10 Cloudy OVC033 29 20     69%     30.2 30.24      
Jan 19 06:53 Calm 10 Cloudy OVC034 27 19     72%     30.2 30.24      
Jan 19 05:53 Calm 10 Mostly Cloudy BKN036 22 16     78%     30.2 30.24      
Jan 19 04:53 Calm 10 Clear CLR 21 15     77%     30.22 30.25      
Jan 19 03:53 Calm 10 Clear CLR 23 15     71%     30.24 30.27      
Jan 19 02:53 Calm 10 Clear CLR 24 15     68%     30.25 30.29      
Jan 19 01:53 Calm 10 Clear CLR 25 14     63%     30.26 30.29      
Jan 19 00:53 Calm 10 Clear CLR 25 14     63%     30.27 30.3      
Jan 18 23:53 Calm 10 Clear CLR 26 14     60%     30.28 30.32      
Jan 18 22:53 Calm 10 Clear CLR 27 13     55%       30.36      
Jan 18 21:53 Calm 10 Clear CLR 29 12     49%     30.31 30.35      
Jan 18 20:53 Calm 10 Clear CLR 29 12     49%     30.32 30.37      
Jan 18 19:53 Calm 10 Clear CLR 30 12     47%     30.3 30.36      
Jan 18 18:53 3 10 Clear CLR 35 12     38% 32   30.31 30.36      
Jan 18 17:53 3 10 Clear CLR 38 10     31% 36   30.31 30.36      
Jan 18 16:53 SSW 3 10 Clear CLR 42 8     24% 40   30.31 30.36      
Jan 18 15:53 5 10 Clear CLR 44 8     22% 41   30.32 30.37      
Jan 18 14:53 3 10 Clear CLR 45 8     22% 44   30.34 30.38      
Jan 18 13:53 5 10 Clear CLR 44 9     23% 41   30.36 30.41      
Jan 18 12:53 5 10 Clear CLR 42 8     24% 39   30.39 30.43      
Jan 18 11:53 5 10 Clear CLR 39 10     30% 36   30.45 30.5      
Jun 12 07:23 Calm 2.5 Fog/Mist OVC009 74 72     94%   75 30        
Jun 12 00:53 SE 7 10 Cloudy BKN021 OVC028 76 69     79%   77 29.97 29.93      
Jun 11 20:53 Calm 10 Clear CLR 77 64     64%   77 29.95 29.92      
Jun 11 18:53 SE 6 10 Clear CLR 85 60     43%   85 29.94 29.9      
Jun 11 11:53   10 Partly Cloudy FEW038 SCT047 83 64     53%   84 30.01 29.97      
Jun 08 12:53 NNE 3 10 Partly Cloudy SCT060 79 50     36%   78 30.01 29.99      
Jun 06 06:31 Calm 2 Fog/Mist BKN002 64 63     96%     29.83        
Jun 06 04:56 Calm 2.5 Fog/Mist SCT002 BKN010 65 63     93%     29.82        
Jun 06 03:23 Calm 2 Fog/Mist SCT002 66 64     93%     29.81        
Jun 06 02:33 Calm 2 Fog/Mist SCT002 66 64     93%     29.81        
Jun 05 22:28 Calm 1.5 Clear   70 68     93%     29.81